This demonstration page uses our WeatherBlox Daily Observations layout. Learn more.

41.86663, -103.66717

Hourly Observations for December 10, 2019

Temp ( °F °C ) Dew Point ( °F °C ) Humidity (%) Winds ( mph kmh ) Pressure ( in mb ) Visibility ( mi km ) Precip ( " mm )
12:53 am 00:53 Cloudy 25 -3.9 18 -7.8 75 75 NW 3 6 30.13 1020 10 16.0934 0 0
1:53 am 01:53 Cloudy 29 -1.7 21 -6.1 72 72 N 9 15 30.13 1020 10 16.0934 0 0
2:53 am 02:53 Cloudy 28 -2.2 21 -6.1 75 75 NNW 6 9 30.16 1021 10 16.0934 0 0
3:53 am 03:53 Cloudy 28 -2.2 20 -6.7 72 72 NW 6 9 30.17 1022 10 16.0934 0 0
4:53 am 04:53 Cloudy with Light Snow 27 -2.8 22 -5.6 81 81 WNW 7 11 30.2 1023 8 12.87472 0.001 0.001
5:53 am 05:53 Cloudy 25 -3.9 22 -5.6 88 88 W 5 7 30.22 1024 9 14.48406 0.001 0.001
6:53 am 06:53 Cloudy 25 -3.9 23 -5 92 92 W 6 9 30.25 1024 10 16.0934 0 0
7:53 am 07:53 Cloudy 26 -3.3 23 -5 88 88 W 3 6 30.26 1025 10 16.0934 0 0
8:53 am 08:53 Cloudy 28 -2.2 22 -5.6 78 78 W 6 9 30.27 1025 10 16.0934 0 0
9:53 am 09:53 Cloudy 29 -1.7 21 -6.1 72 72 W 7 11 30.29 1026 10 16.0934 0 0
10:53 am 10:53 Cloudy 31 -0.6 23 -5 72 72 WSW 6 9 30.27 1025 10 16.0934 0 0
11:53 am 11:53 Mostly Cloudy 32 0 23 -5 69 69 S 5 7 30.22 1023 10 16.0934 0 0
12:53 pm 12:53 Sunny 36 2.2 23 -5 59 59 Calm 30.19 1022 10 16.0934 0 0
1:53 pm 13:53 Sunny 37 2.8 23 -5 57 57 SSE 3 6 30.16 1021 10 16.0934 0 0
2:53 pm 14:53 Sunny 38 3.3 24 -4.4 57 57 E 6 9 30.15 1021 10 16.0934 0 0
3:53 pm 15:53 Sunny 32 0 23 -5 69 69 E 7 11 30.19 1022 10 16.0934 0 0
4:53 pm 16:53 Clear 30 -1.1 22 -5.6 72 72 E 5 7 30.2 1023 10 16.0934 0 0
5:53 pm 17:53 Clear 27 -2.8 22 -5.6 81 81 NNE 3 6 30.24 1024 10 16.0934 0 0
6:53 pm 18:53 Clear 26 -3.3 22 -5.6 84 84 Calm 30.25 1024 10 16.0934 0 0
7:53 pm 19:53 Clear 26 -3.3 22 -5.6 84 84 N 6 9 30.25 1024 10 16.0934 0 0
8:53 pm 20:53 Clear 26 -3.3 22 -5.6 84 84 NW 6 9 30.24 1024 10 16.0934 0 0
9:53 pm 21:53 Clear 26 -3.3 22 -5.6 84 84 NW 5 7 30.24 1024 10 16.0934 0 0
10:53 pm 22:53 Clear 25 -3.9 21 -6.1 85 85 NW 6 9 30.24 1024 10 16.0934 0 0
11:53 pm 23:53 Clear 28 -2.2 22 -5.6 78 78 NW 5 7 30.22 1024 10 16.0934 0 0

Powered by AerisWeather